Content
SEND FEEDBACK

Daily
Averages
Monthly
Summary
Mexico

CANCUN, QUINTANA ROO


Home > North America > Mexico > Quintana Roo
Elevation: 9 meters     Latitude: 21 09N     Longitude: 086 49W

WEATHER
 
SELECT A DAY
Number of Records: 166,321;   Date Range: 1/1/95 - 10/19/14
 
SHARE

PRINT THIS DATA

[ ← Previous Day ]
WEATHER ALMANAC - 11 JULY, 2013
[ Next Day → ]
[ °F ]   °C
Weather ElementAverageHighLow
Temperature25.6 °C31 °C (11:42 am)23 °C (1:44 am)
Dewpoint22.7 °C24 °C (8:42 am)22 °C (1:44 am)
Humidity84.5 %94 % (1:44 am)62 % (11:42 am)
Barometer1014.9 hPa1016.3 hPa (10:42 am)1013.9 hPa (3:46 am)
Wind Speed5.5 km/h14.8 km/h (12:46 pm)
Weather ElementAverage
Visibility11.3 km
Wind DirectionSE (130.9 °)

Weather ElementTotal
Precipitation---
Cooling Degree Days8.7 (Base 18.3)
Growing Degree Days17 (Base 10)
Averaged from 23 records on 11 July, 2013
WEATHER CONDITIONS BREAKOUT
WIND DIRECTION BREAKOUT
WEATHER BY HOUR - 11 JULY, 2013
[ °F ]   °C
Local TimeTemperatureDewpointHumidityBarometerVisibilityWind DirectionWind SpeedGust SpeedPrecipitationEventsConditions
1:44 AM23 °C22 °C94 %1015.9 hPa11.3 kmCalmMostly Cloudy
2:44 AM23 °C22 °C94 %1015.2 hPa11.3 kmNorth (360°)9.3 km/hMostly Cloudy
3:46 AM23 °C22 °C94 %1013.9 hPa11.3 kmCalmScattered Clouds
4:48 AM23 °C22 °C94 %1015.2 hPa11.3 kmNNW (340°)9.3 km/hScattered Clouds
5:44 AM23 °C22 °C94 %1015.2 hPa11.3 kmCalmScattered Clouds
6:43 AM23 °C22 °C94 %1014.9 hPa11.3 kmCalmScattered Clouds
7:42 AM25 °C23 °C89 %1015.6 hPa11.3 kmCalmMostly Cloudy
8:42 AM29 °C24 °C74 %1015.9 hPa11.3 kmEast (100°)9.3 km/hMostly Cloudy
9:48 AM30 °C24 °C70 %1015.9 hPa11.3 kmENE (70°)7.4 km/hMostly Cloudy
10:42 AM30 °C24 °C70 %1016.3 hPa11.3 kmESE (110°)7.4 km/hMostly Cloudy
11:42 AM31 °C23 °C62 %1015.9 hPa11.3 kmESE (110°)9.3 km/hMostly Cloudy
12:46 PM30 °C24 °C70 %1015.6 hPa11.3 kmESE (120°)14.8 km/hMostly Cloudy
1:42 PM28 °C24 °C79 %1015.2 hPa11.3 kmESE (110°)5.6 km/hMostly Cloudy
2:41 PM25 °C22 °C83 %1015.6 hPa11.3 kmNNW (330°)14.8 km/hMostly Cloudy
3:46 PM24 °C22 °C89 %1014.6 hPa11.3 kmNorth (360°)5.6 km/hMostly Cloudy
4:41 PM26 °C23 °C83 %1014.2 hPa11.3 kmWest (270°)3.7 km/hMostly Cloudy
5:42 PM26 °C23 °C83 %1014.2 hPa11.3 kmNNE (20°)3.7 km/hMostly Cloudy
6:49 PM26 °C22 °C78 %1014.2 hPa11.3 kmNNW (330°)9.3 km/hMostly Cloudy
7:45 PM24 °C22 °C89 %1013.9 hPa11.3 kmNW (320°)7.4 km/hMostly Cloudy
8:41 PM24 °C22 °C89 %1014.2 hPa11.3 kmCalmMostly Cloudy
9:40 PM24 °C22 °C89 %1014.6 hPa11.3 kmNNE (30°)5.6 km/hMostly Cloudy
10:48 PM25 °C23 °C89 %1014.9 hPa11.3 kmNNE (30°)3.7 km/hMostly Cloudy
11:43 PM24 °C23 °C94 %1014.9 hPa11.3 kmCalmMostly Cloudy
Hourly data recorded from MMUN, located 0 kilometers away from Cancun, Quintana Roo







STORIES FROM OUR PARTNERS